Track COSMOS 2432 (GLONASS) now! COSMOS 2432 (GLONASS) is classified as:
1 32276U 07052B 25166.56734729 -.00000033 00000-0 00000+0 0 9993 2 32276 65.7933 328.3687 0008039 333.2346 81.0075 2.13103168137283